Starlink 3174

operational
NORAD ID: 51468 Int'l Des: 2022-010 Owner: SPXS Country: US Constellation: starlink
LEOCIRCULAR

Über Starlink 3174

Beschreibung wird geladen...

Live-Position

3D-Globus wird geladen...

Nächste Überflüge

Höhenverlauf

Altitude vs Time

uPlot chart will show altitude changes over time

Zweizeiliger Elementsatz

1 51468U 22010N 25303.97982266 -.00000065 00000-0 14039-4 0 9994
2 51468 53.2160 141.3736 0001794 96.2681 263.8516 15.08835739206931
Epoch: 30. Okt. 2025 • Age: 20 hours

Aktueller Status

Höhe 541.3 km
Geschwindigkeit 7.60 km/s
Subsatellitenpunkt 34.94°N, 41.74°W
Startdatum 3. Feb. 2022
Alter 3.7 years
Typ internet

Technische Details

Klassifizierung Payload
Masse 297.00 kg
Trockenmasse 275.00 kg
Gesamtmasse 297.00 kg
Länge 0.20 m
Durchmesser 2.80 m
Spannweite 9.00 m
Form Box + pan
Hersteller SPXS
Bus-Typ Starlink
Phasenstatus In Orbit
Besitzer/Staat SPXS/US

Große Konstellationen

Loading constellations...